Location: Salillas
(41.9950°N, 0.2228°W)
Time: 07:45:29
(UTC+00:00)

Cosmos 1656 Rocket - Pass Details

Date: 29 March 2020
Orbit: 796 x 846 km, 71.1° (Epoch: 03 June)

Event Time Altitude Azimuth Distance (km) Brightness Sun altitude
Rises 21:15:49 0° 338° (NNW) 3,412 7.7 -30.2°
Reaches altitude 10° 21:18:18 10° 341° (NNW) 2,470 6.8 -30.6°
Enters shadow 21:22:34 50° 3° (N) 1,065 4.3 -31.2°
